Regional Weather Roundup
Issued by NWS Jackson, KY

Home | Current Version | Previous Version | Text Only | Print | Product List | Glossary Off
Versions: 1 2 3 4 5 6 7 8 9 10 11 12 13 14 15 16 17 18 19 20 21 22 23 24 25 26 27 28 29 30 31 32 33 34 35 36 37 38 39 40 41 42 43 44 45 46 47 48 49 50

000
ASUS43 KJKL 302310
RWRJKL

EAST KENTUCKY HOURLY WEATHER ROUNDUP
NATIONAL WEATHER SERVICE JACKSON KY
700 PM EDT SUN APR 30 2017

NOTE: "FAIR" INDICATES FEW OR NO CLOUDS BELOW 12,000 FEET WITH
NO SIGNIFICANT WEATHER AND/OR OBSTRUCTIONS TO VISIBILITY.

* THESE REPORTS ARE NOT UNDER NWS QUALITY CONTROL AND MAY NOT
  REPORT WEATHER SUCH AS PRECIPITATION AND FOG.

KYZ079-080-083-085-087-088-110-112-115-119-120-010000
...EASTERN KENTUCKY...

CITY           SKY/WX    TMP DP  RH WIND       PRES   REMARKS
JACKSON        CLOUDY    82  59  45 VRB6      29.93R
LONDON         PTSUNNY   81  55  40 S13G25    29.92F
SOMERSET*      MOSUNNY   79  57  47 S13G25    29.91S
MONTICELLO*    CLOUDY    79  61  53 SE14G25   29.91S
WILLIAMSBURG*  MOCLDY    79  57  47 S10       29.93F
MIDDLESBORO*   PTSUNNY   82  57  43 S6        29.96S
HARLAN APT*    CLOUDY    81  54  39 SE3       29.97S
PIKE CO APT*     N/A     81  54  39 S12G21    29.95F
BIG SANDY APT* CLOUDY    84  56  39 S12       29.93S
MOREHEAD APT*  PTCLDY    84  55  37 S8G18     29.90S
$$

KYZ035-036-041-042-044-050-067-078-099-010000
...CENTRAL KENTUCKY...

CITY           SKY/WX    TMP DP  RH WIND       PRES   REMARKS
MT STERLING*   MOSUNNY   81  55  41 SW15G23   29.89F
FLEMING/MASON* CLOUDY    82  59  45 S12G22    29.88S
DANVILLE*      CLOUDY    79  61  53 S17G24    29.87S
LEXINGTON      MOSUNNY   81  59  47 S16G24    29.86F
FRANKFORT      CLOUDY    81  60  48 S10G18    29.83S
LOUISVILLE     LGT RAIN  75  67  76 SE23G29   29.75F
LEBANON*       MOCLDY    68  66  94 S12G17    29.89R
GLASGOW*       LGT RAIN  65  65 100 SE10      29.79F
BOWLING GREEN  CLOUDY    69  65  86 SW10      29.78F
$$

KYZ091>093-OHZ055-061-077-WVZ005-015-034-035-042-010000
...SOUTHERN OHIO/WEST VIRGINIA...

CITY           SKY/WX    TMP DP  RH WIND       PRES   REMARKS
COVINGTON      CLOUDY    78  64  61 S14G28    29.80F
COLUMBUS       CLOUDY    81  66  60 S10       29.84S
DAYTON         CLOUDY    78  62  57 S10       29.81F
WILMINGTON     CLOUDY    78  63  59 S14       29.83S
HUNTINGTON     MOSUNNY   83  60  45 VRB5      29.88S
CHARLESTON     MOSUNNY   86  57  37 S9        29.90F
PINEVILLE*     CLOUDY    82  52  34 MISG      30.03F
BECKLEY        SUNNY     77  52  41 S13       30.04F
BLUEFIELD      SUNNY     73  49  42 S12G22    30.09F
LOGAN CO APT*    N/A     82  54  36 S6G14     29.95S
$$

VAZ002-007-008-TNZ017-027-036-066-071-010000
...SOUTHWEST VIRGINIA/EAST TENNESSEE...

CITY           SKY/WX    TMP DP  RH WIND       PRES   REMARKS
WISE*          CLOUDY    75  50  41 S12       30.06S
JONESVILLE*      N/A     81  57  44 SE8       30.00S
ABINGDON*      CLOUDY    79  52  38 SW10      30.05S
BRISTOL        CLOUDY    80  53  39 S12       30.01S
MORRISTOWN*    CLEAR     81  59  47 SW6       29.98R
SEVIERVILLE*   CLEAR     81  54  39 SW10      29.97R
KNOXVILLE      CLOUDY    81  55  40 S17G24    29.94F
LAFOLLETTE*    PTCLDY    79  57  47 SW12      29.98S
OAK RIDGE      CLOUDY    82  56  40 VRB5      29.95F
CROSSVILLE     TSTM      64  61  90 SW12G25   29.99R VSB 1/2
NASHVILLE      CLOUDY    69  64  84 SE21      29.80F
$$

...KEY TO REMARKS...
VSB - VISIBILITY IN MILES
WCI - WIND CHILL INDEX
HX  - HEAT INDEX

$$



USA.gov is the U.S. government's official web portal to all federal, state and local government web resources and services.